Location: Indian Springs
(36.5700°N, 115.6700°W)
Time: 20:29:15
(UTC-07:00)

Daily predictions for brighter satellites

Satellite Brightness Start Highest point End
(mag) Time Altitude Azimuth Time Altitude Azimuth Time Altitude Azimuth
Cosmos 614 Rocket 4.3 20:28:33 10° S 20:33:28 45° ESE 20:38:25 10° NNE
Helios 1A 3.5 20:30:10 10° SE 20:34:06 43° ENE 20:38:02 10° N
Helios 1B rocket 2.7 20:31:13 10° NNE 20:35:14 47° E 20:39:12 10° S
Cosmos 1470 4.2 20:32:06 10° NNW 20:35:50 41° W 20:39:30 10° SSW
Cosmos 2237 Rocket 2.2 20:33:23 10° NNW 20:39:01 72° ENE 20:44:37 10° SSE
Cosmos 1842 Rocket 3.7 20:35:35 10° N 20:39:54 54° E 20:44:09 10° SSE
CZ-2D R/B 4.4 20:36:25 10° S 20:40:05 44° W 20:43:46 10° NNW
Cosmos 1605 Rocket 4.1 20:35:03 10° N 20:41:17 64° E 20:47:32 10° SSE
H-2A R/B 4.1 20:43:20 10° E 20:45:24 12° ENE 20:47:30 10° NE
Atlas Centaur 2 2.0 20:43:00 10° WSW 20:46:17 30° S 20:49:18 11° ESE
ERS-1 Rocket 4.0 20:42:06 10° SE 20:46:26 30° ENE 20:50:47 10° N
Lacrosse 4 Rocket 2.9 20:44:33 10° SW 20:48:34 42° WNW 20:52:42 10° NNE
USA 234 3.6 20:42:55 10° ENE 20:49:04 43° SE 20:55:12 10° SSW
Cosmos 1674 4.1 20:47:35 10° SE 20:50:27 21° E 20:53:19 10° NE
Cosmos 2227 Rocket 2.9 20:45:34 10° SW 20:51:08 60° WNW 20:56:44 10° NNE
Cosmos 1184 Rocket 2.8 20:48:36 10° S 20:51:54 60° E 20:55:13 10° NNE
Meteor 1-24 Rocket 3.9 20:48:12 10° S 20:54:09 88° W 20:59:58 10° N
Cosmos 1741 Rocket 4.3 20:50:36 10° S 20:55:41 48° ESE 21:00:48 10° NNE
Cosmos 1727 Rocket 4.0 20:50:54 10° S 20:57:10 78° E 21:03:32 10° N
SEDSat Delta rocket 4.4 20:58:00 10° WSW 21:01:36 24° SSW 21:04:21 13° SSE
SL-16 R/B 2.7 20:57:02 10° N 21:02:29 46° ENE 21:07:03 14° SE
Tiangong 1 2.5 21:00:29 10° W 21:03:06 34° NNW 21:05:42 10° NE
In-Cosmos 22 4.2 20:58:57 10° S 21:04:36 83° E 21:10:24 10° N
ARGOS 4.2 21:01:49 13° ESE 21:05:50 30° ENE 21:10:28 10° N
Cosmos 1356 Rocket 4.2 21:03:32 12° SSE 21:07:04 34° E 21:10:57 10° NNE
Cosmos 1076 Rocket 4.1 21:04:14 11° SSE 21:08:06 38° E 21:12:08 10° NNE
SAR-Lupe-4 3.5 21:07:14 11° SSE 21:10:36 88° E 21:14:12 10° NNW
Aureole 2 Rocket 4.1 21:08:14 10° NW 21:11:59 37° WSW 21:15:30 10° S
NOSS 3-4 (A) 3.9 21:07:31 10° NNW 21:14:41 89° WSW 21:21:10 15° SSE
NOSS 3-4 (C) 3.9 21:07:37 10° NNW 21:14:47 90° E 21:21:15 15° SSE
Terra 4.1 21:16:58 10° ENE 21:17:28 10° ENE 21:17:59 10° NE
Okean 3 Rocket 3.5 21:15:16 10° S 21:19:46 77° E 21:24:15 10° N
Meteor 1-29 3.8 21:16:30 10° N 21:19:51 51° WNW 21:23:12 10° SSW
Cosmos 2219 Rocket 4.1 21:15:47 10° NW 21:20:22 26° WSW 21:24:56 10° SSW
Meteor 2-1 Rocket 4.4 21:15:05 10° N 21:20:55 80° W 21:26:36 10° S
Cosmos 2221 2.5 21:18:00 10° N 21:22:23 67° E 21:25:34 18° SSE
Cosmos 2333 Rocket 3.8 21:18:07 10° NW 21:22:59 31° WSW 21:27:50 10° SSW
Envisat 4.4 21:24:24 10° SSW 21:29:00 35° W 21:33:39 10° NNW
Cosmos 2208 Rocket 4.2 21:26:23 10° N 21:31:39 59° ENE 21:34:56 23° SE
NOAA 11 4.1 21:27:58 18° SSE 21:32:07 76° ENE 21:37:33 10° N
RESURS DK-1 4.2 21:30:39 10° NNE 21:33:37 18° ENE 21:35:16 15° E
Cosmos 2227 4.4 21:28:41 10° S 21:34:12 51° ESE 21:39:44 10° NNE
Cosmos 1242 Rocket 2.7 21:31:26 10° N 21:35:06 57° E 21:36:40 31° SE
SL-08 RB Rocket 4.3 21:34:11 25° SE 21:36:23 42° ENE 21:40:42 10° N
YAOGAN 11 4.5 21:35:53 26° SE 21:38:10 51° ENE 21:42:34 10° N
Cosmos 1766 Rocket 3.6 21:35:45 23° SSE 21:38:16 56° E 21:42:30 10° NNE
SPOT 1/Viking Rocket 4.2 21:37:13 24° ESE 21:39:46 39° ENE 21:44:32 10° N
USA 245 3.3 21:40:57 36° ESE 21:41:48 47° ENE 21:45:28 10° N
Cosmos 1570 Rocket 4.0 21:40:47 10° NNW 21:46:06 90° NNE 21:49:10 26° SSE
Meteor 1-21 Rocket 4.2 21:40:37 10° S 21:46:20 87° W 21:51:59 10° N
SL-14 R/B 4.1 21:46:09 30° ESE 21:46:38 31° E 21:50:09 10° NNE
Cosmos 2228 Rocket 4.2 21:46:53 10° NNE 21:50:55 30° ENE 21:51:58 27° ESE
Cosmos 1328 4.5 21:51:24 34° ESE 21:51:56 36° E 21:55:38 10° NNE
Cosmos 1743 Rocket 4.2 21:54:02 34° ESE 21:54:44 36° E 21:58:42 10° NNE
H-2A R/B 3.9 21:54:27 17° E 21:55:16 18° ENE 21:58:07 10° NNE
EO 1 Delta rocket 4.1 21:54:27 33° SE 21:56:19 52° ENE 22:00:48 10° N
MINOTAUR IV R/B 4.5 21:53:42 19° SSW 21:56:56 76° ESE 22:01:28 10° NNE
Cosmos 1867 4.2 21:52:03 10° SW 21:57:23 58° WNW 22:02:47 10° NNE
Cosmos 1626 4.4 22:00:20 13° ENE 22:00:20 13° ENE 22:01:17 10° NE
Cosmos 1300 3.4 21:56:10 10° N 21:59:44 36° E 22:00:01 36° E
Delta 2 Rocket 4.5 21:54:50 10° SW 22:00:11 40° SSE 22:02:10 30° ESE
Cosmos 1151 Rocket 4.5 21:57:52 10° NNE 22:01:20 22° ENE 22:01:42 22° E
MetOp-B 4.4 21:58:34 23° S 22:01:56 66° WSW 22:07:16 10° NNW
Cosmos 2263 Rocket 3.0 22:03:22 29° ESE 22:03:41 29° ESE 22:08:26 10° NE
Cosmos 1726 2.0 22:04:05 10° N 22:07:45 64° E 22:08:04 60° ESE
SPOT 5 2.9 22:07:35 33° S 22:09:42 75° WSW 22:14:43 10° NNW
Cosmos 1459 Rocket 4.3 22:03:43 10° NNW 22:09:56 64° W 22:14:09 21° SSW
Cosmos 2100 Rocket 4.5 22:04:05 10° NNW 22:10:16 59° W 22:14:53 19° SSW
IGS 5A 4.5 22:10:27 30° E 22:10:50 30° ENE 22:14:30 10° N
Cosmos 2061 Rocket 4.2 22:05:12 10° NNW 22:11:33 70° W 22:15:41 23° S
ATLAS 5 CENTAUR R/B 3.9 22:08:29 10° WSW 22:12:29 28° NW 22:16:48 10° NNE
OAO 1 Rocket 4.3 22:08:43 10° WSW 22:14:04 73° S 22:16:37 31° E
Lacrosse 5 2.7 22:10:37 10° NNW 22:15:26 42° NE 22:17:19 30° E
Meteor 2-10 4.3 22:11:17 10° N 22:16:50 62° E 22:18:41 41° SE
Cosmos 2123 Rocket 3.9 22:15:14 27° S 22:18:49 88° E 22:25:03 10° N
Cosmos 468 Rocket 3.9 22:15:19 10° NNW 22:20:28 80° ENE 22:21:53 48° SSE
Cosmos 371 Rocket 3.6 22:17:28 10° N 22:22:11 52° ENE 22:23:02 45° ESE
H-2A R/B 2.1 22:22:03 40° S 22:24:01 80° WSW 22:29:26 10° NNW
Cosmos 1603 3.6 22:23:55 10° NNW 22:29:36 86° ENE 22:31:12 49° SSE
USA 234 4.1 22:25:48 10° NE 22:32:05 51° NW 22:38:19 10° WSW
Cosmos 1455 4.2 22:30:44 10° NNE 22:32:48 19° ENE 22:32:48 19° ENE
Atlas Centaur 2 3.7 22:31:53 10° WSW 22:31:56 10° WSW 22:31:56 10° WSW
Cosmos 220 Rocket 4.2 22:34:08 43° SW 22:35:28 70° WNW 22:39:52 10° NNE
Tiangong 1 3.3 22:36:53 10° NW 22:39:04 21° N 22:39:04 21° N
Landsat 7 3.8 22:38:42 59° S 22:39:34 77° WSW 22:44:20 10° NNW
Milstar 3 Cent rocket 4.5 22:33:56 10° WSW 22:42:18 41° SSW 22:47:28 32° SSE
deb Chang Zheng 4 3.7 22:40:23 10° NNE 22:44:23 61° ENE 22:44:23 61° ENE
Cosmos 1725 Rocket 4.1 22:38:42 10° NNW 22:44:55 69° W 22:47:15 39° SSW
SL-16 R/B 4.1 22:42:03 10° NW 22:46:12 21° W 22:48:57 15° SW
Cosmos 1943 3.4 22:41:11 10° NNW 22:46:46 58° ENE 22:47:48 50° ESE
Sakura Rocket 4.5 22:43:39 10° WSW 22:49:07 36° SSW 22:49:07 36° SSW
Cosmos 1703 3.8 22:51:37 52° NNE 22:51:37 52° NNE 22:54:46 10° NNE
Cosmos 1356 4.5 22:51:47 45° N 22:51:47 45° N 22:54:19 10° N
Cosmos 2058 2.9 22:51:16 77° N 22:51:16 77° N 22:55:11 10° N
CZ-4C R/B 4.0 22:54:51 16° ENE 22:54:51 16° ENE 22:56:25 10° ENE
CZ-4B R/B 3.6 22:47:53 10° NNE 22:53:05 57° E 22:53:06 57° ESE
CZ-4 R/B 3.7 22:48:45 10° NNE 22:53:34 71° E 22:53:34 71° E
Terra 1.7 22:54:08 73° SSW 22:54:30 79° WSW 22:59:17 10° NNW
Cosmos 540 Rocket 4.5 22:53:27 10° N 22:58:06 33° ENE 22:58:26 32° ENE
Cosmos 1500 Rocket 4.2 22:59:25 46° WSW 23:00:03 50° W 23:04:24 10° N
ERBS 4.1 22:59:05 10° NNW 23:01:14 31° N 23:01:14 31° N
Cosmos 1354 Rocket 3.8 23:06:54 81° SE 23:07:03 83° ESE 23:12:18 10° NNE
Cosmos 2151 3.6 23:07:09 48° W 23:07:18 48° W 23:11:29 10° N
CARTOSAT-1 4.2 23:09:48 47° W 23:09:48 47° W 23:13:47 10° NNW
Cosmos 1464 Rocket 4.3 23:04:02 10° N 23:09:58 48° E 23:10:36 46° E
RESURS DK-1 3.7 23:07:58 10° NW 23:11:11 32° W 23:11:11 32° W
Spot 4 3.8 23:18:33 82° NNW 23:18:33 82° NNW 23:23:14 10° NNW
Cosmos 1805 Rocket 4.2 23:19:58 49° NNE 23:19:58 49° NNE 23:23:13 10° N
CZ-2C R/B 3.8 23:15:03 10° NE 23:18:36 29° ENE 23:18:36 29° ENE
Cosmos 1633 Rocket 4.4 23:26:58 31° NE 23:26:58 31° NE 23:29:35 10° NNE
Cosmos 304 Rocket 4.0 23:23:14 10° NNW 23:27:27 64° NNE 23:27:27 64° NNE
H-2A R/B 3.3 23:31:35 34° W 23:31:35 34° W 23:34:58 10° NNW
SME Rocket 3.8 23:32:35 47° NNW 23:32:35 47° NNW 23:35:41 10° NNW
Cosmos 841 Rocket 3.9 23:26:26 10° NNW 23:31:24 52° W 23:31:24 52° W
Cosmos 1626 4.1 23:34:58 25° WNW 23:34:58 25° WNW 23:37:30 10° NNW
Cosmos 1763 Rocket 4.4 23:30:09 10° NW 23:34:39 35° W 23:34:39 35° W
Tsikada Rocket 4.4 23:35:48 49° E 23:35:53 49° E 23:41:59 10° NNE
Cosmos 2263 Rocket 3.5 23:44:59 23° WSW 23:47:27 33° WNW 23:52:29 10° N
COSMOS 2406 4.3 23:43:59 10° N 23:49:05 33° ENE 23:49:39 33° ENE
